Weather in Pitishevo

Russia / Chuvash Republic     55°45′07″N   46°03′13″E
temp.,
°C
wind,
m/s
gust,
m/s
humid.,
%
clouds,
%
prec.,
mm/h
press.,
hPa
HPBL,
m
28 october, thu
thu2800:00+4wsw71396100 0.8 1011854
03:00+5w61283100 1.1 1011806
06:00+5wsw51182100 0.0 1011619
09:00+6wsw51080100 0.0 1012649
12:00+8wsw6966100 0.0 1011879
15:00+8wsw4768100 0.0 10111000
18:00+6wsw3690100 2.1 1012984
21:00+6n4691100 3.4 1013757
29 october, fri
fri2900:00+5n5887100 0.2 1016592
03:00+3nne587621 0.3 1021613
06:00−2nne47765 0.0 1024288
09:00−1ene336589 0.0 1027322
12:00+1ese2247100 0.0 1027474
15:00+2ssw344659 0.0 1027462
18:000s3661100 0.0 1026124
21:00+3ssw51274100 0.0 1025370
30 october, sat
sat3000:00+5sw61382100 0.6 1023625
03:00+6wsw61382100 0.6 1023440
06:00+5wsw6149227 0.0 1022370
09:00+7wsw6148996 0.0 1022451
12:00+10w6137792 0.0 1022563
15:00+11w6127680 0.0 1023575
18:00+8w512890 0.0 1024331
21:00+7w4109334 0.0 1025263
31 october, sun
sun3100:00+7wsw49969 0.0 1025195
03:00+6wsw399742 0.0 1026184
06:00+6wsw38965 0.0 1026175
09:00+7wsw5128110 0.0 1026331
12:00+11wsw6125779 0.0 1026536
15:00+11wsw512608 0.0 1025545
18:00+8wsw6146832 0.0 1025357
21:00+7wsw5127598 0.0 1025312
1 november, mon
mon100:00+5wsw411826 0.0 1025256
03:00+4wsw411855 0.0 1025224
06:00+4sw412857 0.0 1024250
09:00+6wsw5137310 0.0 1024375
12:00+10wsw6115489 0.0 1024525
15:00+10wsw5105648 0.0 1023424
18:00+6wsw4117274 0.0 1023224
21:00+5wsw397724 0.0 1023171